Location: *
(90.0000°N, 180.0000°W)
Time: 10:29:46
(UTC+02:00)

Okean O Rocket - Visible Passes

Search period start: 24 October 2014 00:00
Search period end: 02 November 2014 23:00
Orbit: 626 x 646 km, 98.0° (Epoch: 23 October)

Date Brightness Start Highest point End Pass type
(mag) Time Alt. Az. Time Alt. Az. Time Alt. Az.
24 Oct 3.4 01:03:09 10° SSE 01:07:09 31° SW 01:11:10 10° W visible
24 Oct 3.4 02:40:39 10° S 02:44:39 31° WSW 02:48:40 10° WNW visible
24 Oct 3.4 04:18:09 10° SSW 04:22:09 31° W 04:26:10 10° NNW visible
24 Oct 3.4 05:55:39 10° SW 05:59:39 31° WNW 06:03:40 10° N visible
24 Oct 3.4 07:33:09 10° WSW 07:37:09 31° NW 07:41:10 10° NNE visible
24 Oct 3.4 09:10:39 10° W 09:14:39 31° NNW 09:18:40 10° NE visible
24 Oct 3.4 10:48:09 10° WNW 10:52:09 31° N 10:56:10 10° ENE visible
24 Oct 3.4 12:25:39 10° NW 12:29:39 31° NNE 12:33:40 10° E visible
24 Oct 3.4 14:03:09 10° NNW 14:07:09 31° NE 14:11:10 10° ESE visible
24 Oct 3.4 15:40:39 10° N 15:44:39 31° ENE 15:48:40 10° SE visible
24 Oct 3.4 17:18:09 10° NE 17:22:09 31° E 17:26:10 10° SSE visible
24 Oct 3.4 18:55:39 10° ENE 18:59:39 31° ESE 19:03:40 10° S visible
24 Oct 3.4 20:33:09 10° E 20:37:09 31° SSE 20:41:10 10° SSW visible
24 Oct 3.4 22:10:39 10° ESE 22:14:39 31° S 22:18:40 10° SW visible
24 Oct 3.4 23:48:09 10° SE 23:52:09 31° SSW 23:56:10 10° W visible
25 Oct 3.4 01:25:39 10° SSE 01:29:39 31° SW 01:33:40 10° WNW visible
25 Oct 3.4 03:03:09 10° S 03:07:09 31° WSW 03:11:10 10° NW visible
25 Oct 3.4 04:40:39 10° SSW 04:44:39 31° W 04:48:40 10° NNW visible
25 Oct 3.4 06:18:09 10° SW 06:22:09 31° WNW 06:26:10 10° N visible
25 Oct 3.4 07:55:39 10° WSW 07:59:39 31° NW 08:03:40 10° NNE visible
25 Oct 3.4 09:33:08 10° W 09:37:09 31° NNW 09:41:10 10° NE visible
25 Oct 3.4 11:10:38 10° WNW 11:14:39 31° N 11:18:40 10° ENE visible
25 Oct 3.4 12:48:08 10° NNW 12:52:08 31° NNE 12:56:10 10° E visible
25 Oct 3.4 14:25:38 10° N 14:29:38 31° NE 14:33:39 10° ESE visible
25 Oct 3.4 16:03:08 10° NNE 16:07:08 31° E 16:11:09 10° SE visible
25 Oct 3.4 17:40:38 10° NE 17:44:38 31° ESE 17:48:39 10° SSE visible
25 Oct 3.4 19:18:08 10° ENE 19:22:08 31° SE 19:26:09 10° SSW visible
25 Oct 3.4 20:55:38 10° E 20:59:38 31° SSE 21:03:39 10° SW visible
25 Oct 3.4 22:33:08 10° ESE 22:37:08 31° S 22:41:09 10° WSW visible
26 Oct 3.4 00:10:38 10° SE 00:14:38 31° SSW 00:18:39 10° W visible
26 Oct 3.4 01:48:08 10° SSE 01:52:08 31° SW 01:56:09 10° WNW visible
26 Oct 3.4 02:25:38 10° S 02:29:38 31° WSW 02:33:39 10° NW visible
26 Oct 3.4 04:03:08 10° SSW 04:07:08 31° W 04:11:09 10° NNW visible
26 Oct 3.4 05:40:38 10° SW 05:44:38 31° WNW 05:48:39 10° N visible
26 Oct 3.4 07:18:08 10° W 07:22:08 31° NW 07:26:09 10° NNE visible
26 Oct 3.4 08:55:38 10° WNW 08:59:38 31° NNW 09:03:39 10° NE visible
26 Oct 3.4 10:33:08 10° NW 10:37:08 31° NNE 10:41:09 10° ENE visible
26 Oct 3.4 12:10:38 10° NNW 12:14:38 31° NE 12:18:39 10° E visible
26 Oct 3.4 13:48:08 10° N 13:52:08 31° ENE 13:56:09 10° SE visible
26 Oct 3.4 15:25:38 10° NNE 15:29:38 31° E 15:33:39 10° SSE visible
26 Oct 3.4 17:03:08 10° NE 17:07:08 31° ESE 17:11:09 10° S visible
26 Oct 3.4 18:40:38 10° ENE 18:44:38 31° SE 18:48:39 10° SSW visible
26 Oct 3.4 20:18:08 10° E 20:22:08 31° SSE 20:26:09 10° SW visible
26 Oct 3.4 21:55:38 10° ESE 21:59:38 31° S 22:03:39 10° WSW visible
26 Oct 3.4 23:33:07 10° SE 23:37:08 31° SSW 23:41:09 10° W visible
27 Oct 3.4 01:10:37 10° SSE 01:14:38 31° SW 01:18:39 10° WNW visible
27 Oct 3.4 02:48:07 10° SSW 02:52:08 31° WSW 02:56:09 10° NW visible
27 Oct 3.4 04:25:37 10° SW 04:29:38 31° W 04:33:39 10° NNW visible
27 Oct 3.4 06:03:07 10° WSW 06:07:08 31° NW 06:11:09 10° N visible
27 Oct 3.4 07:40:37 10° W 07:44:38 31° NNW 07:48:39 10° NNE visible
27 Oct 3.4 09:18:07 10° WNW 09:22:08 31° N 09:26:09 10° ENE visible
27 Oct 3.4 10:55:37 10° NW 10:59:38 31° NNE 11:03:39 10° E visible
27 Oct 3.4 12:33:07 10° NNW 12:37:08 31° NE 12:41:09 10° ESE visible
27 Oct 3.4 14:10:37 10° N 14:14:37 31° ENE 14:18:39 10° SE visible
27 Oct 3.4 15:48:07 10° NNE 15:52:07 31° E 15:56:09 10° SSE visible
27 Oct 3.4 17:25:37 10° NE 17:29:37 31° ESE 17:33:39 10° S visible
27 Oct 3.4 19:03:07 10° ENE 19:07:07 31° SE 19:11:09 10° SSW visible
27 Oct 3.4 20:40:37 10° E 20:44:37 31° SSE 20:48:39 10° SW visible
27 Oct 3.4 22:18:07 10° SE 22:22:07 31° S 22:26:09 10° WSW visible
27 Oct 3.4 23:55:37 10° SSE 23:59:37 31° SSW 00:03:39 10° W visible
28 Oct 3.4 01:33:07 10° S 01:37:07 31° WSW 01:41:09 10° WNW visible
28 Oct 3.4 03:10:37 10° SSW 03:14:37 31° W 03:18:38 10° NW visible
28 Oct 3.4 04:48:07 10° SW 04:52:07 31° WNW 04:56:08 10° N visible
28 Oct 3.4 06:25:37 10° WSW 06:29:37 31° NW 06:33:38 10° NNE visible
28 Oct 3.4 08:03:06 10° W 08:07:07 31° NNW 08:11:08 10° NE visible
28 Oct 3.4 09:40:36 10° WNW 09:44:37 31° N 09:48:38 10° ENE visible
28 Oct 3.4 11:18:06 10° NW 11:22:07 31° NNE 11:26:08 10° E visible
28 Oct 3.4 12:55:36 10° NNW 12:59:37 31° NE 13:03:38 10° ESE visible
28 Oct 3.4 14:33:06 10° N 14:37:07 31° ENE 14:41:08 10° SE visible
28 Oct 3.4 16:10:36 10° NNE 16:14:37 31° E 16:18:38 10° SSE visible
28 Oct 3.4 17:48:06 10° ENE 17:52:07 31° ESE 17:56:08 10° S visible
28 Oct 3.4 19:25:36 10° E 19:29:37 31° SE 19:33:38 10° SSW visible
28 Oct 3.4 21:03:06 10° ESE 21:07:07 31° S 21:11:08 10° SW visible
28 Oct 3.4 22:40:36 10° SE 22:44:37 31° SSW 22:48:38 10° WSW visible
29 Oct 3.4 00:18:06 10° SSE 00:22:07 31° SW 00:26:08 10° WNW visible
29 Oct 3.4 01:55:36 10° S 01:59:36 31° WSW 02:03:38 10° NW visible
29 Oct 3.4 03:33:06 10° SSW 03:37:06 31° W 03:41:08 10° NNW visible
29 Oct 3.4 05:10:36 10° SW 05:14:36 31° WNW 05:18:38 10° N visible
29 Oct 3.4 06:48:06 10° WSW 06:52:06 31° NW 06:56:08 10° NNE visible
29 Oct 3.4 08:25:36 10° W 08:29:36 31° NNW 08:33:38 10° NE visible
29 Oct 3.4 10:03:05 10° WNW 10:07:06 31° N 10:11:08 10° ENE visible
29 Oct 3.4 11:40:35 10° NW 11:44:36 31° NNE 11:48:38 10° E visible
29 Oct 3.4 13:18:05 10° N 13:22:06 31° NE 13:26:08 10° ESE visible
29 Oct 3.4 14:55:35 10° NNE 14:59:36 31° ENE 15:03:38 10° SE visible
29 Oct 3.4 16:33:05 10° NE 16:37:06 31° ESE 16:41:07 10° SSE visible
29 Oct 3.4 18:10:35 10° ENE 18:14:36 31° SE 18:18:37 10° S visible
29 Oct 3.4 19:48:05 10° E 19:52:06 31° SSE 19:56:07 10° SW visible
29 Oct 3.4 21:25:35 10° ESE 21:29:36 31° S 21:33:37 10° WSW visible
29 Oct 3.4 23:03:05 10° SE 23:07:06 31° SSW 23:11:07 10° W visible
30 Oct 3.4 00:40:35 10° SSE 00:44:36 31° SW 00:48:37 10° WNW visible
30 Oct 3.4 02:18:05 10° S 02:22:06 31° WSW 02:26:07 10° NW visible
30 Oct 3.4 03:55:35 10° SSW 03:59:36 31° W 04:03:37 10° NNW visible
30 Oct 3.4 05:33:05 10° SW 05:37:06 31° WNW 05:41:07 10° N visible
30 Oct 3.4 07:10:35 10° WSW 07:14:35 31° NW 07:18:37 10° NNE visible
30 Oct 3.4 08:48:05 10° WNW 08:52:05 31° NNW 08:56:07 10° NE visible
30 Oct 3.4 10:25:34 10° NW 10:29:35 31° N 10:33:37 10° ENE visible
30 Oct 3.4 12:03:04 10° NNW 12:07:05 31° NE 12:11:07 10° E visible
30 Oct 3.4 13:40:34 10° N 13:44:35 31° ENE 13:48:37 10° ESE visible
30 Oct 3.4 15:18:04 10° NNE 15:22:05 31° E 15:26:07 10° SSE visible
30 Oct 3.4 16:55:34 10° NE 16:59:35 31° ESE 17:03:37 10° S visible
30 Oct 3.4 18:33:04 10° ENE 18:37:05 31° SE 18:41:07 10° SSW visible
30 Oct 3.4 20:10:34 10° E 20:14:35 31° SSE 20:18:37 10° SW visible
30 Oct 3.4 21:48:04 10° ESE 21:52:05 31° S 21:56:06 10° WSW visible
30 Oct 3.4 23:25:34 10° SE 23:29:35 31° SSW 23:33:36 10° W visible
31 Oct 3.4 01:03:04 10° SSE 01:07:05 31° SW 01:11:06 10° WNW visible
31 Oct 3.4 02:40:34 10° S 02:44:35 31° WSW 02:48:36 10° NW visible
31 Oct 3.4 04:18:04 10° SW 04:22:05 31° W 04:26:06 10° NNW visible
31 Oct 3.4 05:55:34 10° WSW 05:59:35 31° WNW 06:03:36 10° N visible
31 Oct 3.4 07:33:04 10° W 07:37:04 31° NNW 07:41:06 10° NNE visible
31 Oct 3.4 09:10:33 10° WNW 09:14:34 31° N 09:18:36 10° NE visible
31 Oct 3.4 10:48:03 10° NW 10:52:04 31° NNE 10:56:06 10° E visible
31 Oct 3.4 12:25:33 10° NNW 12:29:34 31° NE 12:33:36 10° ESE visible
31 Oct 3.4 14:03:03 10° N 14:07:04 31° ENE 14:11:06 10° SE visible
31 Oct 3.4 15:40:33 10° NNE 15:44:34 31° E 15:48:36 10° SSE visible
31 Oct 3.4 17:18:03 10° NE 17:22:04 31° ESE 17:26:06 10° S visible
31 Oct 3.4 18:55:33 10° ENE 18:59:34 31° SE 19:03:36 10° SSW visible
31 Oct 3.4 20:33:03 10° E 20:37:04 31° SSE 20:41:06 10° SW visible
31 Oct 3.4 22:10:33 10° ESE 22:14:34 31° S 22:18:35 10° WSW visible
31 Oct 3.4 23:48:03 10° SSE 23:52:04 31° SSW 23:56:05 10° W visible
01 Nov 3.4 01:25:33 10° S 01:29:34 31° SW 01:33:35 10° WNW visible
01 Nov 3.4 03:03:03 10° SSW 03:07:04 31° W 03:11:05 10° NW visible
01 Nov 3.4 04:40:32 10° SW 04:44:34 31° WNW 04:48:35 10° NNW visible
01 Nov 3.4 06:18:02 10° WSW 06:22:03 31° NW 06:26:05 10° NNE visible
01 Nov 3.4 07:55:32 10° W 07:59:33 31° NNW 08:03:35 10° NE visible
01 Nov 3.4 09:33:02 10° WNW 09:37:03 31° N 09:41:05 10° ENE visible
01 Nov 3.4 11:10:32 10° NW 11:14:33 31° NNE 11:18:35 10° E visible
01 Nov 3.4 12:48:02 10° NNW 12:52:03 31° NE 12:56:05 10° ESE visible
01 Nov 3.4 14:25:32 10° N 14:29:33 31° ENE 14:33:35 10° SE visible
01 Nov 3.4 16:03:02 10° NNE 16:07:03 31° E 16:11:05 10° SSE visible
01 Nov 3.4 17:40:32 10° NE 17:44:33 31° ESE 17:48:35 10° S visible
01 Nov 3.4 19:18:02 10° E 19:22:03 31° SE 19:26:05 10° SSW visible
01 Nov 3.4 20:55:32 10° ESE 20:59:33 31° SSE 21:03:34 10° SW visible
01 Nov 3.4 22:33:02 10° SE 22:37:03 31° SSW 22:41:04 10° WSW visible
02 Nov 3.4 00:10:31 10° SSE 00:14:33 31° SW 00:18:34 10° W visible
02 Nov 3.4 01:48:01 10° S 01:52:03 31° WSW 01:56:04 10° NW visible
02 Nov 3.4 03:25:31 10° SSW 03:29:32 31° W 03:33:34 10° NNW visible
02 Nov 3.4 05:03:01 10° SW 05:07:02 31° WNW 05:11:04 10° N visible
02 Nov 3.4 06:40:31 10° WSW 06:44:32 31° NW 06:48:34 10° NNE visible
02 Nov 3.4 08:18:01 10° W 08:22:02 31° NNW 08:26:04 10° NE visible
02 Nov 3.4 09:55:31 10° WNW 09:59:32 31° N 10:03:34 10° ENE visible
02 Nov 3.4 11:33:01 10° NW 11:37:02 31° NNE 11:41:04 10° E visible
02 Nov 3.4 13:10:31 10° NNW 13:14:32 31° NE 13:18:34 10° ESE visible
02 Nov 3.4 14:48:01 10° NNE 14:52:02 31° ENE 14:56:04 10° SE visible
02 Nov 3.4 16:25:31 10° NE 16:29:32 31° E 16:33:34 10° SSE visible
02 Nov 3.4 18:03:00 10° ENE 18:07:02 31° SE 18:11:03 10° S visible
02 Nov 3.4 19:40:30 10° E 19:44:32 31° SSE 19:48:33 10° SSW visible
02 Nov 3.4 21:18:00 10° ESE 21:22:02 31° S 21:26:03 10° WSW visible
02 Nov 3.3 22:55:30 10° SE 22:59:31 31° SSW 23:00:00 31° SSW visible
